Home > Weather > Arequipa > Past weeks

Flag for Peru Weather for the Past 2 Weeks in Arequipa, Arequipa, Peru

Now
59 °F

Passing clouds.


Feels Like: 58 °F
Forecast: 55 / 75 °F
Wind: 6 mph from East

Location: Arequipa Airport

Current Time: Feb 13, 2016 at 9:49:37 PM

Latest Report: Feb 13, 2016 at 9:00 PM


Visibility: N/A

Pressure: 30.30 "Hg (22.94 "Hg at 2345m altitude)

Humidity: 82%

Dew point: 54 °F

Location of ArequipaLocation

Historic Weather in Arequipa — Graph

°F

Arequipa Temperature Yesterday

Maximum temperature yesterday: 72 °F (at 11:00 AM)
Minimum temperature yesterday: 55 °F (at 6:00 PM)
Average temperature yesterday: 62 °F

High & Low Weather Summary for the Past Weeks

 TemperatureHumidityPressure
High79 °F (Feb 4, 11:00 AM)94% (Feb 12, 6:00 PM)30.39 "Hg (Feb 12, 6:00 PM)
Low50 °F (Jan 31, 3:00 AM)28% (Feb 4, 11:00 AM)30.21 "Hg (Feb 3, 3:00 AM)
Average61 °F66%30.30 "Hg
* Reported Jan 29 8:00 PM — Feb 13 8:00 PM, Arequipa, Weather by CustomWeather, © 2016

Note: Actual official high and low records may vary slightly from our data, if they occured in-between our weather recording intervals... More about our weather records

Advertising

Arequipa Weather History for the Previous 24 Hours

 ConditionsComfort  
Time TempWeatherWind HumidityBarometerVisibility
8:00 PM
Sat, Feb 13
59 °FPassing clouds.3 mph88%30.30 "HgN/A
7:00 PM57 °FPassing clouds.3 mph88%30.27 "HgN/A
6:00 PM57 °FDrizzle. Broken clouds.7 mph88%30.30 "HgN/A
5:00 PM59 °FCool.13 mph77%30.27 "HgN/A
4:00 PM63 °FBroken clouds.13 mph73%30.24 "HgN/A
3:00 PM64 °FBroken clouds.14 mph68%30.24 "HgN/A
2:00 PM68 °FBroken clouds.13 mph56%30.24 "HgN/A
1:00 PM68 °FScattered clouds.13 mph60%30.27 "HgN/A
12:00 PM68 °FPassing clouds.12 mph56%30.27 "HgN/A
11:00 AM66 °FPassing clouds.10 mph64%30.30 "HgN/A
10:00 AM64 °FPassing clouds.9 mph68%30.30 "HgN/A
9:00 AM64 °FPassing clouds.6 mph64%30.30 "HgN/A
8:00 AM61 °FPassing clouds.5 mph72%30.30 "HgN/A
7:00 AM59 °FSunny.No wind72%30.30 "Hg10 mi
6:00 AM54 °FSunny.6 mph82%30.27 "Hg10 mi
5:00 AM55 °FClear.3 mph77%30.24 "Hg10 mi
4:00 AM55 °FPassing clouds.7 mph77%30.27 "HgN/A
3:00 AM55 °FClear.2 mph88%30.27 "Hg10 mi
2:00 AM55 °FClear.2 mph82%30.27 "Hg10 mi
1:00 AM57 °FPassing clouds.5 mph88%30.27 "HgN/A
12:00 AM59 °FPassing clouds.3 mph82%30.30 "HgN/A
11:00 PM
Fri, Feb 12
59 °FPassing clouds.No wind88%30.33 "HgN/A
10:00 PM59 °FPassing clouds.3 mph94%30.33 "HgN/A
9:00 PM59 °FPassing clouds.3 mph88%30.33 "HgN/A
Weather by CustomWeather, © 2016

See weather overviewHow to use our weather pages